Карточка аэропорта URMM

Внимание!
Информация на этой странице в стадии наполнения.
Если вы не увидели какой-то информации, или заметили неточность - пожалуйста сообщите нам!
Спасибо!
Команда RU-STAFF
Название аэропортаМинеральные Воды
Название аэропорта (англ.)Mineralnyye Vody
Превышение1047 ft. (319.1 m.)
Координаты44°13.608', 43°4.9799999999999'
Высота перехода7000 ft
Эшелон переходаFL80 (QNH >= 1013); FL90 (QNH 977-1012); FL100 (QNH < 977)
Коды ответчика1050-1057
Зона ОрВДРостов-на-Дону РПИ (URRV)
Данные METARURMM 121430Z 12003MPS 9999 NSC 33/13 Q1010 R11/090070 NOSIG RMK QFE730/0973
Проноз погоды (TAF)URMM 121400Z 1215/1315 10003G08MPS 9999 BKN060 TX32/1312Z TN18/1302Z BECMG 1305/1307 11006G13MPS TEMPO 1307/1315 05007G14MPS
NOTAMshow/hide NOTAM
AWOS   TABLE

Информация о ВПП

ВПП Длина ВПП (м.) Покрытие Курс ВПП Частота ILS
123900Бетон115111.7
303900Бетон295109.3

Диспетчерские позиции

Позывной Наименование органа УВД Частота
URMM_R_APPМинводы-Круг120.7
URMM_APPМинводы-Подход119.3
URMM_GNDМинводы-Руление121.9
URMM_TWRМинводы-Старт128.0



Спутниковое изображение